Location: Buffign�court
(47.8126°N, 6.0176°E)
Time: 17:51:58
(UTC+00:00)

ALOS 2 - Pass Details

Date: 16 June 2021
Orbit: 630 x 632 km, 97.9° (Epoch: 02 August)

Event Time Altitude Azimuth Distance (km) Brightness Sun altitude
Exits shadow 22:12:05 20° 116° (ESE) 1,465 4.1 -16.3°
Maximum altitude 22:14:21 33° 67° (ENE) 1,078 3.8 -16.4°
Drops below altitude 10° 22:18:17 10° 4° (N) 2,026 6.3 -16.7°
Sets 22:20:39 0° 355° (N) 2,939 7.6 -16.8°
